Reflectivity
-20 -20 -20 -20 -20 -20 -20 -20 -20 -20 -20 -20 -20 -20 -20 -20 -20 -20 -20 -20 -20 -20
-20 -20 -20 -20 -20 -20 -20 -20 -20 -20 -20 -20 -20 -20 -20 -20 -20 -20 -20 -20 -20 -20
-20 -20 -20 -20 -20 -20 -20 -20 -20 -20 -20 -20 -20 -20 -20 -20 -20 -20 -20 -20 -20 -20
-20 -20 -20 -20 -20 -20 -20 -20 -20 -20 -20 -20 -20 -20 -20 -20 -20 -20 -20 -20 -20 -20
-20 -20 -20 -20 -20 -20 -20 -15 -19 -10 -20 -20 -20 -20 -20 -20 -20 -20 -20 -20 -20 -20
-20 -20 -20 -20 -19 -6 3 7 -6 -20 -20 -20 -20 -20 -20 -20 -20 -20 -20 -20 -20 -20
-11 -2 10 8 15 13 5 -10 -20 -20 -20 -20 -20 -20 -20 -20 -20 -20 -20 -20 -20 -19
11 8 17 16 6 -19 -20 -20 -20 -20 -20 -20 -20 -20 -20 -20 -20 -20 -20 -20 -20 -20
21 21 17 3 3 -0 -1 -5 -20 -20 -20 -20 -20 -20 -0 1 -20 -20 -20 -20 -20 -20
12 9 8 7 5 6 3 -7 -20 -20 -20 -20 -20 -14 2 -8 -19 -20 -20 -20 -20 -20
11 10 8 9 8 6 -1 -19 -20 -20 -20 -20 -20 -15 -0 3 -12 -20 -20 -20 -20 -20
7 8 7 2 0 1 -3 -12 -17 -20 -20 -20 -20 -20 1 -14 -20 -20 -20 -20 -20 -20
7 2 -12 -5 -4 -12 -20 -20 -20 -20 -20 -20 -20 -20 -0 0 -20 -20 -20 -20 -20 -20
-3 -1 -2 -10 -20 -20 -20 -20 -20 -20 -20 -20 -20 -20 1 2 -6 -19 13 -19 -16 -20
Wind_Speed
7 4 4 4 4 3 2 2 2 2 2 3 4 3 3 2 2 3 3 5 4 5
6 6 5 5 4 3 2 2 2 2 2 3 3 4 4 3 4 3 3 4 5 4
6 6 5 4 4 3 2 1 1 2 3 3 4 4 4 3 4 4 3 4 5 5
6 6 5 4 3 3 1 2 2 3 4 4 5 4 4 4 5 4 5 5 6 9
6 5 4 4 3 2 2 2 3 4 4 5 5 4 5 5 5 5 6 8 8 10
5 4 4 3 2 2 2 3 4 4 5 5 5 5 4 5 6 6 8 9 10 12
4 3 3 2 2 2 2 3 4 5 4 5 5 7 6 7 7 8 9 10 11 12
3 3 2 1 2 3 3 3 4 5 5 5 5 4 6 8 7 8 9 10 12 12
3 1 2 3 5 5 4 4 5 5 5 5 5 11 13 12 7 5 8 10 12 12
4 2 3 4 4 5 5 5 5 5 6 6 6 13 15 16 6 6 8 11 12 13
2 1 2 3 3 4 5 5 5 5 6 7 7 15 16 18 7 7 10 12 13 14
0 2 3 3 4 5 5 5 5 6 6 7 8 16 16 16 6 8 11 12 13 13
1 2 3 4 4 4 4 5 6 8 6 10 8 15 18 17 6 8 10 12 9 20
3 3 3 3 3 3 4 6 5 7 7 7 7 8 19 20 10 10 9 9 10 10
Wind_Direction
135 136 141 148 152 159 158 175 134 65 31 20 8 334 312 284 284 296 304 298 282 281
132 135 142 142 138 141 139 162 82 39 20 1 331 307 303 301 303 296 284 269 264 259
136 134 137 136 132 125 116 79 35 7 2 335 311 302 303 299 284 288 272 283 276 273
136 138 138 131 127 112 81 20 353 349 340 315 292 293 293 277 270 270 282 279 273 279
134 134 126 113 103 86 33 5 343 327 301 284 285 283 276 277 290 279 285 283 281 278
113 111 113 111 88 44 22 347 331 305 290 290 284 282 277 269 275 274 268 271 272 272
98 108 97 73 48 13 0 329 290 285 289 291 296 311 298 285 271 261 262 263 269 276
89 76 64 36 8 4 349 313 295 302 303 296 297 300 293 285 269 263 271 274 279 278
97 89 30 11 0 350 334 321 308 303 298 303 309 311 304 306 301 280 276 282 286 281
59 29 7 356 347 335 315 305 289 285 294 298 290 312 320 316 315 277 278 286 284 283
69 341 339 339 327 306 296 293 291 284 289 299 306 322 322 323 316 289 280 274 279 287
14 324 326 313 299 290 289 296 301 319 315 304 297 325 330 321 314 289 285 287 293 294
304 305 292 280 290 290 279 300 319 320 315 306 309 318 326 329 322 301 297 297 294 301
302 288 259 285 281 280 299 330 309 309 300 292 296 304 328 327 325 310 309 315 311 303